Precipitable_Water
1.27 1.31 1.32 1.31 1.33 1.36 1.38 1.40 1.41 1.44 1.47 1.50 1.50 1.48 1.50 1.52 1.55 1.51 1.54 1.55 1.50 1.42 1.39 1.35 1.30 1.32 1.36 1.33 1.29 1.35 1.38 1.41 1.43 1.50 1.56 1.58 1.61 1.61 1.59 1.57 1.55 1.50 1.50 1.48 1.47 1.56 1.63 1.70 1.72 1.73 1.74 1.71 1.64 1.61 1.63 1.62 1.60 1.58 1.49 1.48 1.41 1.32 1.27 1.25 1.23 1.24 1.10 1.05 1.16 1.19 1.25 1.31 1.29 1.28 1.29 1.40 1.44 1.50 1.53 1.51 1.47 1.43 1.35 1.31 1.24
1.34 1.34 1.35 1.34 1.33 1.33 1.36 1.36 1.37 1.32 1.38 1.45 1.43 1.43 1.45 1.51 1.52 1.54 1.57 1.54 1.50 1.44 1.41 1.36 1.31 1.26 1.22 1.23 1.27 1.32 1.33 1.33 1.35 1.45 1.51 1.57 1.59 1.60 1.59 1.54 1.52 1.47 1.45 1.44 1.46 1.52 1.57 1.63 1.66 1.68 1.70 1.69 1.69 1.69 1.63 1.65 1.59 1.54 1.51 1.39 1.46 1.30 1.15 1.17 1.20 1.18 1.02 0.98 0.95 0.99 1.09 1.23 1.30 1.26 1.30 1.35 1.43 1.50 1.52 1.47 1.39 1.30 1.25 1.22 1.24
1.30 1.31 1.34 1.32 1.31 1.32 1.33 1.33 1.33 1.32 1.33 1.36 1.42 1.44 1.44 1.45 1.49 1.55 1.57 1.51 1.48 1.50 1.46 1.35 1.36 1.36 1.33 1.32 1.31 1.30 1.40 1.41 1.41 1.48 1.54 1.54 1.57 1.58 1.59 1.54 1.50 1.45 1.46 1.44 1.43 1.50 1.56 1.59 1.62 1.68 1.67 1.69 1.66 1.61 1.59 1.54 1.53 1.50 1.46 1.40 1.32 1.30 1.21 1.18 1.17 1.16 0.98 1.09 1.07 0.93 0.90 0.89 0.99 1.13 1.26 1.35 1.42 1.46 1.47 1.39 1.32 1.28 1.25 1.27 1.31
1.26 1.28 1.31 1.33 1.33 1.33 1.33 1.30 1.30 1.32 1.34 1.37 1.41 1.40 1.43 1.42 1.43 1.49 1.54 1.54 1.50 1.49 1.46 1.44 1.41 1.40 1.42 1.42 1.42 1.37 1.31 1.41 1.45 1.51 1.51 1.52 1.51 1.58 1.58 1.54 1.50 1.46 1.48 1.47 1.44 1.48 1.54 1.56 1.62 1.66 1.66 1.71 1.68 1.59 1.53 1.47 1.52 1.52 1.47 1.47 1.41 1.16 1.17 1.06 1.18 1.12 1.07 1.06 0.83 0.86 0.88 0.90 0.79 0.92 1.06 1.24 1.38 1.41 1.43 1.39 1.38 1.35 1.35 1.38 1.37
1.25 1.29 1.32 1.34 1.34 1.32 1.31 1.32 1.33 1.29 1.28 1.29 1.32 1.36 1.37 1.35 1.37 1.42 1.48 1.50 1.49 1.49 1.48 1.48 1.46 1.42 1.43 1.45 1.48 1.43 1.46 1.41 1.39 1.38 1.42 1.45 1.47 1.49 1.49 1.53 1.51 1.47 1.47 1.48 1.45 1.44 1.51 1.57 1.59 1.63 1.67 1.70 1.70 1.63 1.55 1.50 1.51 1.53 1.50 1.46 1.41 1.28 1.11 1.03 1.12 1.17 1.12 1.14 1.00 0.91 0.81 0.81 0.83 0.94 1.06 1.10 1.27 1.29 1.37 1.39 1.39 1.37 1.38 1.37 1.38
1.28 1.26 1.27 1.31 1.32 1.35 1.35 1.35 1.33 1.30 1.26 1.27 1.31 1.33 1.35 1.37 1.38 1.41 1.46 1.49 1.47 1.48 1.49 1.46 1.40 1.32 1.28 1.24 1.21 1.22 1.20 1.22 1.17 1.18 1.25 1.29 1.31 1.42 1.49 1.50 1.48 1.46 1.46 1.46 1.46 1.43 1.45 1.54 1.60 1.61 1.63 1.69 1.68 1.66 1.63 1.55 1.53 1.51 1.50 1.47 1.43 1.39 1.24 1.01 1.02 1.20 1.19 1.16 1.12 1.05 0.97 0.88 0.90 1.01 1.05 0.88 1.21 1.26 1.30 1.37 1.34 1.33 1.36 1.37 1.38
1.37 1.33 1.32 1.30 1.32 1.33 1.34 1.31 1.30 1.27 1.27 1.30 1.33 1.34 1.35 1.37 1.38 1.38 1.39 1.43 1.46 1.45 1.46 1.44 1.39 1.35 1.25 1.16 1.12 1.08 1.07 1.11 1.16 1.24 1.26 1.32 1.38 1.37 1.41 1.46 1.46 1.43 1.43 1.44 1.46 1.44 1.43 1.48 1.55 1.61 1.64 1.68 1.70 1.65 1.61 1.56 1.53 1.53 1.55 1.50 1.44 1.39 1.25 1.00 0.99 1.07 1.17 1.17 1.19 1.16 1.16 1.18 1.15 1.01 0.94 1.01 0.92 1.06 1.22 1.27 1.27 1.32 1.34 1.35 1.33
1.30 1.34 1.34 1.31 1.29 1.28 1.29 1.30 1.29 1.27 1.31 1.34 1.31 1.32 1.32 1.33 1.36 1.37 1.39 1.41 1.44 1.44 1.41 1.39 1.32 1.30 1.24 1.18 1.14 1.09 1.04 1.03 1.12 1.18 1.27 1.32 1.32 1.33 1.38 1.41 1.44 1.44 1.42 1.41 1.42 1.42 1.42 1.43 1.49 1.56 1.61 1.67 1.70 1.62 1.59 1.61 1.58 1.57 1.59 1.53 1.49 1.42 1.28 1.08 1.03 1.07 0.99 1.02 1.20 1.16 1.18 1.21 1.21 1.12 1.13 1.01 0.96 0.88 0.96 1.18 1.25 1.28 1.30 1.31 1.32
1.28 1.30 1.33 1.33 1.27 1.24 1.28 1.30 1.32 1.34 1.35 1.32 1.31 1.31 1.32 1.33 1.33 1.35 1.35 1.36 1.41 1.44 1.39 1.34 1.32 1.29 1.23 1.18 1.11 1.11 1.10 1.11 1.17 1.21 1.21 1.25 1.26 1.32 1.34 1.37 1.41 1.45 1.44 1.40 1.38 1.38 1.40 1.41 1.44 1.49 1.55 1.60 1.67 1.65 1.63 1.65 1.59 1.53 1.53 1.49 1.43 1.40 1.37 1.29 1.12 1.05 1.03 1.03 1.09 1.12 1.16 1.11 1.12 1.11 1.11 1.11 0.98 0.89 0.90 0.97 1.02 1.19 1.24 1.26 1.28
1.28 1.30 1.34 1.34 1.28 1.25 1.28 1.33 1.36 1.36 1.36 1.35 1.35 1.36 1.35 1.35 1.33 1.32 1.31 1.35 1.37 1.40 1.39 1.33 1.30 1.29 1.25 1.19 1.10 1.08 1.12 1.14 1.16 1.13 1.14 1.19 1.17 1.22 1.28 1.31 1.34 1.37 1.40 1.40 1.37 1.36 1.36 1.40 1.43 1.46 1.52 1.56 1.61 1.63 1.63 1.63 1.62 1.57 1.55 1.52 1.45 1.39 1.41 1.35 1.21 1.14 1.11 1.10 1.12 1.12 1.10 1.08 1.08 1.04 1.04 1.04 1.02 0.99 0.87 0.89 0.97 0.98 0.96 1.08 1.22
1.22 1.27 1.33 1.32 1.30 1.28 1.31 1.32 1.33 1.36 1.37 1.36 1.35 1.35 1.34 1.33 1.31 1.28 1.28 1.32 1.35 1.35 1.36 1.31 1.30 1.27 1.21 1.17 1.10 1.05 1.07 1.08 1.07 1.08 1.10 1.13 1.11 1.16 1.21 1.23 1.29 1.30 1.33 1.35 1.36 1.36 1.34 1.36 1.38 1.45 1.56 1.59 1.57 1.58 1.59 1.62 1.60 1.59 1.58 1.56 1.48 1.40 1.37 1.33 1.26 1.17 1.13 1.11 1.11 1.13 1.11 1.08 1.01 0.94 0.95 1.02 0.99 0.94 0.93 0.92 0.97 1.00 0.99 0.99 1.12
1.18 1.24 1.30 1.33 1.30 1.29 1.31 1.30 1.32 1.32 1.33 1.32 1.31 1.33 1.33 1.32 1.29 1.26 1.29 1.30 1.31 1.33 1.33 1.30 1.29 1.24 1.20 1.17 1.12 1.08 1.06 1.04 1.01 0.99 1.03 1.02 1.03 1.08 1.18 1.21 1.22 1.26 1.29 1.28 1.31 1.34 1.32 1.31 1.34 1.40 1.50 1.57 1.56 1.58 1.60 1.63 1.66 1.63 1.61 1.57 1.51 1.47 1.41 1.34 1.27 1.17 1.10 1.13 1.09 1.12 1.15 1.17 1.13 1.06 1.05 1.05 1.02 1.01 0.99 0.93 0.95 1.01 1.03 1.04 1.11
1.17 1.20 1.27 1.31 1.27 1.24 1.25 1.27 1.29 1.28 1.27 1.28 1.26 1.26 1.28 1.29 1.27 1.23 1.23 1.27 1.27 1.29 1.27 1.28 1.26 1.22 1.18 1.15 1.13 1.13 1.07 1.05 1.01 0.99 1.02 1.01 1.01 1.02 1.08 1.09 1.15 1.16 1.19 1.20 1.25 1.29 1.31 1.29 1.28 1.28 1.35 1.49 1.59 1.60 1.59 1.61 1.63 1.64 1.61 1.58 1.55 1.48 1.40 1.33 1.25 1.20 1.16 1.09 1.08 1.15 1.17 1.19 1.15 1.17 1.16 1.10 1.11 1.13 1.05 0.97 1.01 1.09 1.00 1.02 1.12
1.14 1.18 1.23 1.27 1.26 1.24 1.25 1.26 1.26 1.25 1.26 1.30 1.29 1.23 1.22 1.24 1.26 1.24 1.21 1.24 1.24 1.23 1.22 1.22 1.21 1.19 1.17 1.14 1.12 1.12 1.08 1.05 1.03 0.98 0.99 1.01 1.01 0.97 0.97 1.00 1.03 1.04 1.09 1.11 1.22 1.30 1.32 1.30 1.29 1.27 1.31 1.40 1.52 1.58 1.61 1.62 1.62 1.62 1.64 1.60 1.55 1.54 1.49 1.39 1.30 1.26 1.22 1.18 1.18 1.15 1.13 1.14 1.14 1.18 1.16 1.14 1.10 1.09 1.07 1.04 1.03 1.05 1.07 1.06 1.14
1.15 1.17 1.21 1.24 1.26 1.25 1.25 1.27 1.27 1.26 1.27 1.29 1.30 1.24 1.18 1.18 1.22 1.22 1.22 1.24 1.21 1.17 1.17 1.16 1.16 1.17 1.17 1.15 1.13 1.12 1.08 1.05 1.03 1.02 1.00 0.98 1.00 0.97 0.95 0.99 0.99 1.02 1.06 1.13 1.24 1.27 1.29 1.33 1.32 1.29 1.30 1.32 1.39 1.47 1.56 1.61 1.63 1.62 1.63 1.62 1.64 1.62 1.54 1.47 1.38 1.29 1.20 1.17 1.15 1.15 1.18 1.16 1.14 1.17 1.17 1.15 1.16 1.14 1.12 1.11 1.08 0.97 1.01 1.07 1.04
1.14 1.16 1.19 1.24 1.27 1.28 1.28 1.27 1.27 1.27 1.27 1.27 1.27 1.26 1.21 1.16 1.17 1.18 1.18 1.20 1.19 1.16 1.13 1.11 1.11 1.14 1.14 1.12 1.11 1.10 1.09 1.07 1.05 1.07 1.05 1.02 0.98 0.96 0.94 0.95 0.98 1.03 1.10 1.16 1.22 1.24 1.26 1.29 1.34 1.33 1.33 1.33 1.34 1.38 1.46 1.53 1.58 1.59 1.60 1.62 1.60 1.68 1.59 1.51 1.45 1.36 1.25 1.19 1.17 1.14 1.14 1.14 1.13 1.15 1.17 1.17 1.18 1.19 1.17 1.19 1.15 1.08 0.98 0.92 1.01
1.11 1.13 1.17 1.21 1.26 1.29 1.28 1.26 1.26 1.27 1.27 1.24 1.23 1.25 1.23 1.18 1.14 1.15 1.19 1.22 1.19 1.15 1.10 1.09 1.09 1.09 1.10 1.11 1.11 1.10 1.07 1.04 1.01 1.01 1.04 1.05 1.03 1.00 0.97 0.96 1.03 1.07 1.10 1.16 1.18 1.21 1.23 1.26 1.30 1.35 1.37 1.35 1.34 1.35 1.40 1.46 1.52 1.55 1.56 1.56 1.56 1.63 1.61 1.56 1.54 1.42 1.31 1.25 1.20 1.17 1.11 1.11 1.09 1.13 1.17 1.17 1.18 1.22 1.21 1.20 1.19 1.11 1.08 0.96 0.90
1.05 1.09 1.14 1.18 1.21 1.24 1.26 1.28 1.27 1.24 1.24 1.23 1.23 1.29 1.30 1.25 1.16 1.12 1.16 1.17 1.19 1.19 1.14 1.11 1.08 1.08 1.08 1.08 1.09 1.09 1.07 1.05 1.04 1.01 1.04 1.05 1.04 1.02 1.01 1.00 1.00 1.06 1.09 1.12 1.14 1.15 1.17 1.22 1.26 1.32 1.37 1.38 1.35 1.36 1.37 1.41 1.44 1.46 1.49 1.53 1.57 1.61 1.58 1.58 1.57 1.54 1.43 1.33 1.25 1.19 1.17 1.13 1.13 1.13 1.17 1.19 1.17 1.21 1.22 1.20 1.19 1.19 1.16 1.01 0.97
0.99 1.06 1.13 1.18 1.21 1.24 1.25 1.26 1.29 1.27 1.25 1.25 1.27 1.31 1.32 1.30 1.25 1.19 1.13 1.15 1.17 1.19 1.19 1.17 1.15 1.10 1.09 1.07 1.07 1.08 1.09 1.08 1.07 1.05 1.05 1.02 1.01 1.00 0.97 0.96 1.01 1.07 1.08 1.10 1.11 1.11 1.14 1.17 1.22 1.27 1.34 1.36 1.39 1.37 1.38 1.38 1.40 1.38 1.41 1.43 1.51 1.55 1.53 1.51 1.53 1.54 1.52 1.44 1.30 1.20 1.19 1.15 1.15 1.11 1.15 1.22 1.25 1.23 1.20 1.21 1.19 1.20 1.16 1.10 1.04
0.95 1.03 1.08 1.12 1.17 1.22 1.24 1.25 1.27 1.27 1.25 1.25 1.26 1.26 1.24 1.23 1.22 1.19 1.18 1.21 1.23 1.23 1.23 1.19 1.17 1.15 1.12 1.14 1.13 1.12 1.10 1.07 1.05 1.03 1.02 0.99 0.99 0.99 0.97 0.97 0.99 1.05 1.06 1.09 1.10 1.10 1.12 1.13 1.17 1.21 1.25 1.31 1.34 1.36 1.37 1.36 1.36 1.34 1.36 1.36 1.41 1.45 1.44 1.45 1.49 1.53 1.52 1.49 1.40 1.29 1.22 1.18 1.16 1.14 1.14 1.19 1.23 1.26 1.24 1.17 1.16 1.16 1.16 1.15 1.12
0.94 1.00 1.05 1.10 1.16 1.22 1.26 1.27 1.27 1.29 1.26 1.21 1.20 1.18 1.17 1.21 1.19 1.18 1.15 1.18 1.21 1.23 1.24 1.19 1.20 1.17 1.15 1.11 1.10 1.12 1.10 1.11 1.09 1.08 1.03 0.99 0.98 0.99 0.99 0.97 1.01 1.02 1.06 1.08 1.10 1.11 1.14 1.14 1.16 1.17 1.17 1.18 1.20 1.23 1.29 1.31 1.29 1.26 1.28 1.30 1.34 1.35 1.33 1.36 1.43 1.47 1.50 1.47 1.42 1.36 1.30 1.25 1.23 1.12 1.12 1.17 1.20 1.22 1.23 1.19 1.15 1.15 1.14 1.17 1.13
0.93 1.00 1.06 1.11 1.17 1.23 1.28 1.29 1.30 1.31 1.28 1.21 1.19 1.20 1.19 1.18 1.19 1.20 1.21 1.20 1.18 1.21 1.22 1.21 1.21 1.17 1.12 1.10 1.11 1.12 1.11 1.10 1.07 1.07 1.05 1.03 1.01 1.00 1.00 1.04 1.02 1.03 1.09 1.07 1.09 1.13 1.15 1.16 1.16 1.16 1.17 1.16 1.17 1.18 1.22 1.25 1.22 1.20 1.20 1.25 1.25 1.26 1.24 1.25 1.31 1.32 1.40 1.44 1.40 1.33 1.31 1.31 1.30 1.16 1.08 1.10 1.15 1.19 1.19 1.15 1.14 1.12 1.10 1.12 1.17
0.91 0.98 1.06 1.13 1.18 1.24 1.27 1.27 1.27 1.26 1.26 1.24 1.23 1.22 1.20 1.18 1.19 1.20 1.18 1.17 1.19 1.18 1.20 1.21 1.18 1.14 1.10 1.11 1.12 1.12 1.11 1.09 1.06 1.06 1.05 1.05 1.04 1.02 1.06 1.06 1.05 1.07 1.11 1.10 1.09 1.11 1.13 1.15 1.15 1.15 1.16 1.15 1.15 1.17 1.21 1.22 1.20 1.18 1.16 1.17 1.20 1.20 1.18 1.15 1.14 1.15 1.22 1.34 1.36 1.33 1.27 1.27 1.31 1.24 1.13 1.08 1.13 1.15 1.19 1.16 1.12 1.14 1.09 1.10 1.14
0.89 0.97 1.04 1.10 1.16 1.23 1.27 1.26 1.25 1.27 1.28 1.26 1.25 1.24 1.23 1.24 1.23 1.22 1.17 1.16 1.19 1.21 1.22 1.22 1.19 1.15 1.13 1.13 1.12 1.11 1.09 1.08 1.05 1.06 1.04 1.06 1.06 1.06 1.08 1.08 1.09 1.12 1.11 1.12 1.13 1.13 1.14 1.14 1.12 1.12 1.12 1.11 1.14 1.16 1.18 1.20 1.19 1.18 1.16 1.16 1.17 1.17 1.16 1.15 1.12 1.10 1.12 1.16 1.19 1.24 1.27 1.29 1.27 1.22 1.20 1.14 1.11 1.14 1.15 1.14 1.13 1.14 1.12 1.08 1.11
0.86 0.95 1.01 1.07 1.13 1.17 1.20 1.20 1.22 1.24 1.26 1.25 1.23 1.22 1.23 1.23 1.26 1.26 1.23 1.26 1.25 1.26 1.25 1.22 1.20 1.16 1.17 1.15 1.11 1.10 1.06 1.05 1.04 1.06 1.05 1.07 1.08 1.09 1.10 1.06 1.08 1.13 1.14 1.13 1.14 1.17 1.15 1.13 1.09 1.06 1.06 1.08 1.10 1.13 1.14 1.16 1.19 1.21 1.19 1.17 1.16 1.16 1.14 1.13 1.12 1.12 1.13 1.12 1.10 1.07 1.13 1.26 1.30 1.23 1.20 1.20 1.16 1.11 1.13 1.13 1.11 1.12 1.12 1.11 1.12
0.82 0.94 1.01 1.05 1.09 1.14 1.16 1.18 1.21 1.24 1.24 1.22 1.20 1.21 1.25 1.25 1.24 1.30 1.30 1.32 1.33 1.33 1.28 1.23 1.20 1.17 1.16 1.13 1.10 1.08 1.04 1.02 1.03 1.04 1.05 1.08 1.10 1.10 1.09 1.09 1.09 1.07 1.11 1.15 1.12 1.13 1.12 1.08 1.06 1.06 1.07 1.08 1.11 1.13 1.12 1.12 1.14 1.17 1.18 1.19 1.18 1.16 1.15 1.14 1.14 1.14 1.14 1.15 1.12 1.09 1.08 1.12 1.18 1.20 1.20 1.21 1.21 1.16 1.13 1.11 1.09 1.10 1.12 1.13 1.12
0.81 0.92 0.98 1.02 1.05 1.07 1.12 1.16 1.19 1.22 1.23 1.22 1.19 1.21 1.23 1.23 1.24 1.30 1.35 1.36 1.38 1.37 1.33 1.27 1.23 1.19 1.16 1.12 1.09 1.06 1.04 1.03 1.03 1.04 1.08 1.10 1.11 1.12 1.12 1.09 1.10 1.09 1.07 1.08 1.12 1.12 1.12 1.09 1.07 1.08 1.08 1.09 1.11 1.13 1.13 1.13 1.14 1.15 1.15 1.16 1.16 1.17 1.16 1.16 1.15 1.15 1.16 1.17 1.16 1.14 1.13 1.15 1.12 1.09 1.10 1.15 1.20 1.23 1.21 1.15 1.12 1.10 1.11 1.10 1.09
0.83 0.91 0.94 0.95 0.97 1.00 1.08 1.14 1.18 1.21 1.23 1.23 1.26 1.27 1.25 1.21 1.20 1.27 1.35 1.38 1.41 1.41 1.39 1.35 1.30 1.24 1.21 1.16 1.12 1.08 1.04 1.03 1.04 1.06 1.08 1.10 1.12 1.14 1.14 1.13 1.12 1.10 1.09 1.07 1.07 1.09 1.11 1.11 1.08 1.08 1.09 1.11 1.12 1.13 1.14 1.14 1.15 1.15 1.16 1.16 1.18 1.18 1.18 1.19 1.18 1.19 1.20 1.20 1.19 1.19 1.18 1.18 1.17 1.15 1.12 1.09 1.12 1.14 1.20 1.20 1.23 1.22 1.18 1.13 1.09
0.77 0.85 0.89 0.88 0.89 0.96 1.05 1.11 1.15 1.20 1.20 1.21 1.25 1.30 1.30 1.28 1.30 1.33 1.36 1.36 1.43 1.45 1.44 1.42 1.39 1.32 1.29 1.27 1.21 1.17 1.13 1.10 1.09 1.08 1.09 1.10 1.13 1.15 1.16 1.14 1.13 1.12 1.12 1.10 1.08 1.09 1.09 1.09 1.09 1.09 1.09 1.11 1.12 1.11 1.14 1.15 1.16 1.18 1.20 1.18 1.19 1.21 1.22 1.21 1.20 1.21 1.23 1.25 1.25 1.25 1.24 1.22 1.21 1.20 1.21 1.21 1.19 1.17 1.13 1.10 1.15 1.22 1.23 1.21 1.18
0.76 0.83 0.85 0.85 0.87 0.94 1.01 1.07 1.14 1.18 1.18 1.20 1.24 1.27 1.27 1.26 1.27 1.32 1.34 1.40 1.45 1.44 1.45 1.45 1.43 1.41 1.40 1.36 1.33 1.29 1.22 1.17 1.14 1.11 1.10 1.11 1.12 1.14 1.15 1.14 1.12 1.12 1.11 1.11 1.10 1.11 1.09 1.06 1.06 1.07 1.09 1.12 1.14 1.16 1.17 1.17 1.21 1.22 1.23 1.24 1.27 1.28 1.30 1.29 1.28 1.27 1.28 1.30 1.30 1.31 1.31 1.30 1.28 1.26 1.25 1.25 1.25 1.25 1.24 1.19 1.13 1.13 1.12 1.14 1.15
0.77 0.83 0.87 0.90 0.92 0.95 1.01 1.05 1.09 1.14 1.16 1.17 1.21 1.25 1.28 1.28 1.27 1.29 1.33 1.43 1.47 1.47 1.47 1.48 1.48 1.52 1.51 1.49 1.44 1.39 1.36 1.29 1.24 1.19 1.15 1.12 1.10 1.11 1.12 1.11 1.12 1.12 1.10 1.10 1.11 1.09 1.07 1.06 1.05 1.05 1.08 1.12 1.16 1.19 1.19 1.20 1.22 1.26 1.30 1.32 1.31 1.31 1.36 1.38 1.39 1.38 1.35 1.36 1.39 1.41 1.41 1.40 1.39 1.36 1.32 1.28 1.26 1.26 1.26 1.26 1.26 1.24 1.20 1.13 1.07
0.78 0.85 0.89 0.89 0.91 0.96 0.99 1.03 1.09 1.13 1.15 1.16 1.21 1.27 1.29 1.26 1.28 1.29 1.36 1.48 1.50 1.52 1.50 1.53 1.57 1.58 1.58 1.55 1.52 1.49 1.44 1.40 1.37 1.31 1.25 1.19 1.16 1.13 1.11 1.10 1.10 1.11 1.12 1.12 1.10 1.07 1.06 1.06 1.07 1.09 1.10 1.12 1.15 1.17 1.21 1.23 1.25 1.28 1.33 1.37 1.41 1.42 1.44 1.45 1.46 1.46 1.47 1.48 1.47 1.49 1.52 1.54 1.52 1.48 1.45 1.41 1.36 1.32 1.30 1.29 1.28 1.28 1.27 1.25 1.23
0.79 0.84 0.85 0.87 0.91 0.96 1.00 1.06 1.13 1.16 1.19 1.22 1.24 1.25 1.25 1.27 1.30 1.36 1.43 1.45 1.49 1.52 1.54 1.55 1.58 1.60 1.60 1.61 1.60 1.57 1.55 1.52 1.49 1.46 1.41 1.34 1.25 1.18 1.14 1.12 1.10 1.13 1.15 1.13 1.09 1.07 1.05 1.06 1.09 1.08 1.09 1.13 1.15 1.17 1.19 1.22 1.26 1.30 1.36 1.43 1.48 1.53 1.55 1.57 1.61 1.63 1.63 1.62 1.62 1.62 1.63 1.66 1.66 1.65 1.63 1.60 1.55 1.49 1.45 1.40 1.37 1.36 1.36 1.34 1.30
0.90 0.94 0.93 0.97 1.02 1.05 1.12 1.18 1.21 1.23 1.23 1.27 1.31 1.29 1.28 1.31 1.36 1.42 1.42 1.44 1.46 1.50 1.53 1.54 1.57 1.59 1.62 1.64 1.63 1.61 1.59 1.60 1.63 1.61 1.56 1.48 1.40 1.30 1.23 1.21 1.19 1.18 1.15 1.13 1.13 1.09 1.07 1.07 1.09 1.09 1.10 1.13 1.15 1.17 1.20 1.23 1.28 1.34 1.40 1.48 1.53 1.58 1.61 1.63 1.66 1.68 1.69 1.69 1.69 1.68 1.67 1.67 1.72 1.74 1.74 1.72 1.70 1.66 1.64 1.61 1.56 1.52 1.47 1.44 1.40
1.00 1.03 1.07 1.10 1.11 1.16 1.24 1.30 1.33 1.36 1.41 1.42 1.43 1.44 1.41 1.39 1.42 1.42 1.46 1.47 1.49 1.51 1.52 1.53 1.54 1.58 1.60 1.60 1.62 1.62 1.61 1.64 1.65 1.65 1.62 1.57 1.52 1.46 1.39 1.34 1.30 1.23 1.16 1.14 1.13 1.11 1.08 1.09 1.12 1.14 1.14 1.13 1.15 1.19 1.24 1.28 1.33 1.38 1.44 1.52 1.58 1.63 1.65 1.66 1.69 1.71 1.72 1.72 1.73 1.74 1.72 1.69 1.71 1.72 1.75 1.76 1.74 1.72 1.70 1.66 1.63 1.60 1.62 1.61 1.59
1.13 1.13 1.18 1.20 1.26 1.31 1.33 1.34 1.39 1.44 1.50 1.55 1.54 1.58 1.53 1.48 1.51 1.49 1.50 1.52 1.53 1.53 1.53 1.55 1.53 1.55 1.57 1.59 1.60 1.60 1.62 1.65 1.66 1.66 1.63 1.59 1.59 1.57 1.51 1.49 1.43 1.38 1.32 1.26 1.25 1.24 1.16 1.14 1.18 1.21 1.20 1.16 1.19 1.27 1.31 1.34 1.38 1.43 1.50 1.57 1.62 1.64 1.64 1.67 1.69 1.73 1.75 1.77 1.78 1.78 1.75 1.74 1.73 1.73 1.76 1.79 1.79 1.80 1.74 1.67 1.62 1.61 1.62 1.63 1.61
1.24 1.27 1.28 1.36 1.41 1.42 1.45 1.47 1.48 1.51 1.55 1.58 1.61 1.62 1.60 1.57 1.54 1.53 1.51 1.52 1.54 1.52 1.52 1.54 1.55 1.56 1.57 1.60 1.62 1.61 1.61 1.62 1.65 1.63 1.61 1.61 1.61 1.62 1.64 1.65 1.57 1.50 1.42 1.32 1.24 1.25 1.26 1.23 1.23 1.26 1.25 1.21 1.24 1.32 1.36 1.40 1.45 1.52 1.58 1.61 1.64 1.65 1.66 1.66 1.69 1.74 1.77 1.79 1.81 1.82 1.82 1.79 1.78 1.76 1.81 1.84 1.84 1.83 1.74 1.67 1.64 1.63 1.63 1.61 1.55
1.33 1.38 1.43 1.46 1.48 1.48 1.49 1.47 1.46 1.50 1.57 1.60 1.61 1.63 1.61 1.58 1.57 1.57 1.54 1.51 1.50 1.48 1.51 1.52 1.52 1.56 1.60 1.64 1.65 1.64 1.61 1.61 1.61 1.59 1.60 1.64 1.68 1.69 1.68 1.72 1.64 1.58 1.53 1.47 1.37 1.30 1.34 1.35 1.31 1.29 1.31 1.28 1.30 1.39 1.43 1.47 1.52 1.57 1.61 1.61 1.63 1.63 1.62 1.64 1.68 1.75 1.79 1.81 1.83 1.85 1.86 1.83 1.78 1.78 1.84 1.85 1.85 1.85 1.75 1.71 1.69 1.64 1.59 1.53 1.51
1.28 1.29 1.29 1.35 1.38 1.40 1.40 1.37 1.32 1.32 1.45 1.54 1.56 1.58 1.59 1.60 1.62 1.60 1.56 1.52 1.47 1.46 1.48 1.48 1.51 1.57 1.61 1.63 1.66 1.66 1.65 1.63 1.60 1.60 1.63 1.63 1.65 1.67 1.71 1.73 1.70 1.69 1.63 1.62 1.59 1.45 1.37 1.37 1.38 1.37 1.38 1.37 1.38 1.44 1.49 1.52 1.56 1.61 1.63 1.65 1.66 1.64 1.61 1.63 1.68 1.71 1.80 1.83 1.85 1.87 1.85 1.83 1.81 1.82 1.86 1.86 1.87 1.86 1.79 1.75 1.74 1.69 1.55 1.47 1.49
1.23 1.30 1.35 1.38 1.38 1.32 1.26 1.23 1.23 1.23 1.33 1.38 1.41 1.42 1.42 1.43 1.44 1.50 1.51 1.46 1.45 1.48 1.50 1.50 1.49 1.51 1.55 1.57 1.60 1.60 1.62 1.61 1.59 1.62 1.65 1.66 1.70 1.71 1.71 1.70 1.70 1.72 1.69 1.67 1.64 1.58 1.47 1.42 1.45 1.45 1.43 1.44 1.44 1.48 1.53 1.56 1.59 1.62 1.64 1.68 1.70 1.66 1.61 1.65 1.71 1.72 1.73 1.80 1.84 1.85 1.87 1.87 1.86 1.88 1.90 1.90 1.88 1.88 1.83 1.82 1.80 1.69 1.56 1.47 1.69
1.16 1.14 1.17 1.13 1.14 1.12 1.08 1.09 1.21 1.26 1.27 1.25 1.26 1.24 1.22 1.25 1.26 1.24 1.25 1.34 1.43 1.43 1.38 1.40 1.42 1.43 1.44 1.47 1.53 1.55 1.56 1.59 1.61 1.60 1.63 1.67 1.70 1.69 1.71 1.70 1.68 1.70 1.71 1.68 1.65 1.62 1.57 1.53 1.53 1.52 1.52 1.54 1.56 1.56 1.59 1.61 1.63 1.64 1.68 1.70 1.71 1.70 1.71 1.72 1.71 1.73 1.73 1.73 1.78 1.83 1.87 1.90 1.91 1.91 1.91 1.90 1.90 1.90 1.91 1.90 1.86 1.75 1.72 1.75 1.86
1.19 1.15 1.11 1.07 1.06 1.07 1.06 1.04 1.03 1.00 1.04 1.07 1.09 1.09 1.17 1.20 1.15 1.13 1.22 1.33 1.37 1.37 1.32 1.26 1.27 1.30 1.33 1.36 1.40 1.48 1.55 1.58 1.62 1.63 1.59 1.59 1.66 1.71 1.71 1.71 1.71 1.67 1.64 1.64 1.65 1.64 1.60 1.57 1.58 1.59 1.58 1.59 1.64 1.66 1.65 1.65 1.66 1.68 1.70 1.74 1.74 1.75 1.80 1.77 1.72 1.71 1.74 1.78 1.82 1.86 1.85 1.90 1.93 1.92 1.92 1.92 1.92 1.92 1.92 1.92 1.86 1.89 1.90 1.88 1.87
1.08 1.07 1.11 1.10 1.02 1.02 1.04 1.07 1.08 1.04 1.02 1.02 0.98 0.94 1.00 1.10 1.08 1.12 1.23 1.27 1.30 1.32 1.29 1.23 1.21 1.21 1.24 1.26 1.31 1.36 1.43 1.52 1.56 1.59 1.56 1.53 1.61 1.66 1.69 1.71 1.69 1.66 1.63 1.60 1.60 1.61 1.58 1.56 1.57 1.59 1.63 1.67 1.70 1.73 1.72 1.69 1.70 1.72 1.74 1.77 1.79 1.80 1.84 1.85 1.76 1.70 1.76 1.84 1.91 1.91 1.91 1.95 1.97 1.96 1.95 1.95 1.96 1.95 1.93 1.87 1.87 1.88 1.87 1.88 1.89
1.03 1.03 1.06 1.11 1.06 1.05 1.05 1.08 1.11 1.10 1.08 1.08 1.04 0.95 0.96 0.98 1.04 1.21 1.24 1.25 1.24 1.24 1.25 1.18 1.14 1.15 1.17 1.21 1.26 1.31 1.36 1.40 1.45 1.51 1.53 1.51 1.54 1.62 1.69 1.71 1.70 1.67 1.62 1.58 1.58 1.59 1.57 1.54 1.52 1.56 1.63 1.70 1.75 1.77 1.78 1.77 1.76 1.76 1.78 1.80 1.80 1.80 1.83 1.84 1.84 1.80 1.87 1.92 1.91 1.93 1.96 2.00 2.00 2.00 1.99 1.99 1.98 1.98 1.95 1.94 1.92 1.89 1.88 1.89 1.88
0.93 0.92 0.98 1.00 1.00 1.01 1.06 1.08 1.11 1.09 1.08 1.05 1.08 1.01 0.96 0.91 1.02 1.14 1.18 1.21 1.22 1.20 1.18 1.15 1.12 1.13 1.15 1.19 1.24 1.29 1.32 1.36 1.40 1.45 1.45 1.48 1.52 1.59 1.62 1.70 1.71 1.68 1.65 1.60 1.59 1.61 1.56 1.55 1.56 1.55 1.60 1.68 1.74 1.78 1.79 1.79 1.78 1.78 1.79 1.80 1.79 1.81 1.84 1.88 1.85 1.90 1.96 1.98 1.98 1.99 1.99 1.99 2.00 2.00 2.01 2.00 1.97 1.96 1.97 1.95 1.92 1.89 1.88 1.86 1.84
1.06 1.01 1.00 1.00 1.00 0.96 0.93 0.93 1.00 1.04 1.02 0.99 0.99 1.02 0.96 1.01 1.10 1.11 1.13 1.14 1.14 1.14 1.14 1.13 1.16 1.17 1.18 1.22 1.23 1.27 1.32 1.36 1.40 1.45 1.46 1.49 1.51 1.57 1.59 1.65 1.69 1.67 1.67 1.64 1.63 1.63 1.61 1.60 1.58 1.60 1.62 1.66 1.73 1.75 1.76 1.79 1.79 1.79 1.79 1.80 1.83 1.88 1.91 1.93 1.91 1.91 1.96 2.02 2.03 2.01 1.99 1.99 2.00 2.02 2.02 2.00 1.98 1.98 1.98 1.96 1.92 1.90 1.85 1.82 1.79
1.08 1.08 1.06 1.01 0.96 0.88 0.87 0.88 0.89 0.97 1.01 1.00 0.96 1.01 1.06 1.12 1.16 1.19 1.19 1.18 1.16 1.11 1.10 1.11 1.11 1.17 1.22 1.25 1.24 1.27 1.32 1.38 1.43 1.47 1.51 1.54 1.57 1.58 1.61 1.63 1.66 1.65 1.66 1.67 1.67 1.66 1.65 1.63 1.60 1.62 1.65 1.69 1.70 1.72 1.72 1.74 1.79 1.81 1.83 1.88 1.90 1.91 1.94 1.94 1.95 1.99 2.01 2.01 2.01 2.01 2.03 2.05 2.05 2.06 2.06 2.04 1.99 1.96 1.91 1.86 1.83 1.81 1.79 1.75 1.71
1.15 1.14 1.10 1.04 0.99 0.94 0.91 0.91 0.90 0.95 0.98 0.98 0.98 0.98 1.04 1.12 1.17 1.22 1.24 1.23 1.22 1.19 1.13 1.12 1.11 1.14 1.18 1.23 1.24 1.28 1.31 1.36 1.43 1.49 1.51 1.54 1.58 1.60 1.57 1.56 1.60 1.64 1.63 1.62 1.64 1.64 1.64 1.65 1.63 1.65 1.65 1.66 1.68 1.69 1.72 1.74 1.79 1.82 1.86 1.89 1.92 1.93 1.93 1.94 1.96 2.00 2.02 2.03 2.00 1.99 1.98 1.99 2.00 1.96 1.92 1.88 1.83 1.80 1.76 1.72 1.69 1.68 1.65 1.64 1.63
1.14 1.15 1.14 1.06 1.05 1.01 0.99 0.97 0.97 1.01 1.01 1.01 0.99 1.01 1.04 1.06 1.12 1.20 1.24 1.23 1.24 1.25 1.23 1.20 1.19 1.16 1.16 1.19 1.21 1.27 1.31 1.37 1.45 1.45 1.47 1.51 1.53 1.57 1.60 1.64 1.68 1.70 1.70 1.66 1.65 1.67 1.69 1.71 1.71 1.69 1.67 1.66 1.69 1.70 1.79 1.87 1.86 1.87 1.87 1.86 1.85 1.86 1.89 1.90 1.93 1.95 1.94 1.94 1.91 1.88 1.85 1.83 1.80 1.73 1.66 1.61 1.59 1.56 1.54 1.55 1.53 1.52 1.53 1.52 1.49
1.14 1.14 1.12 1.11 1.11 1.06 1.01 0.99 0.99 1.03 1.03 1.04 1.05 1.07 1.09 1.11 1.15 1.19 1.23 1.19 1.23 1.27 1.26 1.25 1.26 1.24 1.24 1.25 1.27 1.31 1.35 1.40 1.38 1.38 1.40 1.44 1.54 1.60 1.65 1.65 1.64 1.70 1.75 1.81 1.84 1.77 1.80 1.78 1.71 1.75 1.83 1.80 1.80 1.90 1.94 1.94 1.94 1.94 1.95 1.94 1.92 1.92 1.92 1.93 1.93 1.93 1.91 1.82 1.77 1.71 1.65 1.58 1.54 1.51 1.47 1.44 1.42 1.40 1.36 1.33 1.33 1.32 1.28 1.22 1.17
1.09 1.05 1.03 1.07 1.10 1.09 1.06 1.04 1.06 1.09 1.09 1.09 1.09 1.12 1.14 1.18 1.21 1.24 1.26 1.24 1.24 1.25 1.26 1.29 1.32 1.33 1.34 1.34 1.35 1.37 1.44 1.43 1.40 1.40 1.40 1.39 1.43 1.54 1.63 1.69 1.74 1.80 1.85 1.84 1.84 1.91 1.96 1.97 1.93 1.82 1.83 1.87 1.89 1.89 1.88 1.89 1.91 1.90 1.89 1.88 1.88 1.90 1.91 1.91 1.91 1.82 1.70 1.57 1.47 1.40 1.38 1.36 1.33 1.29 1.22 1.16 1.12 1.07 1.04 1.02 1.01 1.02 1.02 1.01 1.00
Wind_Speed
16 17 18 18 18 19 20 21 22 22 23 23 24 24 24 24 25 24 24 23 23 23 22 21 20 19 19 18 18 17 16 16 15 15 14 13 13 12 11 11 11 10 10 10 9 9 8 7 7 7 7 7 7 7 7 7 7 8 8 9 9 9 10 10 10 9 9 9 10 10 9 8 8 8 8 8 8 8 8 8 8 8 7 6 6
16 16 17 18 18 19 20 21 22 23 24 24 25 25 24 24 25 25 24 24 24 23 23 21 21 20 19 19 18 18 17 16 16 15 14 14 13 12 11 11 11 11 10 10 10 9 8 7 7 7 6 6 6 6 6 6 7 7 8 8 9 9 9 10 10 9 9 9 9 10 10 9 8 7 7 7 7 8 8 8 8 7 6 7 7
16 16 17 18 18 19 20 21 23 24 24 25 25 25 25 25 25 25 25 25 24 24 23 22 21 20 19 19 18 18 17 17 16 16 15 15 14 13 12 11 11 11 10 10 10 9 8 7 7 6 6 6 6 6 6 6 6 7 7 8 8 9 9 10 9 9 9 9 9 9 9 9 8 7 6 7 7 8 8 8 8 7 7 8 8
18 17 17 18 19 19 20 21 22 24 24 25 26 25 25 25 26 26 26 25 24 24 23 22 21 21 20 19 19 18 17 17 17 16 16 15 14 13 12 12 11 11 11 10 10 9 9 8 7 6 6 5 5 5 5 6 6 6 6 7 8 8 9 9 9 9 9 9 9 8 8 9 9 7 7 7 7 7 7 7 7 7 7 7 7
19 19 18 17 19 19 20 21 22 23 25 26 27 26 25 25 26 26 26 26 25 24 24 23 22 21 20 19 19 18 18 18 18 17 16 16 15 14 13 13 12 11 11 10 10 10 9 8 7 7 6 5 5 5 5 5 5 5 6 6 6 7 8 8 8 9 9 8 9 9 9 9 8 7 7 7 7 7 6 6 6 6 6 6 6
20 20 19 18 18 19 20 21 22 24 25 26 27 27 26 26 26 27 27 26 25 25 25 24 23 22 22 21 20 20 19 18 19 18 17 16 15 15 14 13 13 12 11 10 10 10 9 8 8 7 6 5 5 5 5 5 5 5 5 6 6 6 7 7 7 7 8 8 8 9 9 9 8 8 8 8 7 7 6 6 6 6 6 6 6
20 20 20 19 19 19 20 21 23 24 26 26 27 27 27 26 27 27 27 27 26 25 25 25 24 23 23 22 21 21 20 19 19 18 17 16 15 15 14 14 13 12 11 10 10 10 9 9 8 7 6 5 5 5 5 4 4 4 5 5 5 6 6 6 6 6 7 7 7 8 8 8 8 8 8 8 8 7 6 6 5 5 5 5 5
20 21 21 20 19 20 21 22 23 24 26 27 27 27 27 27 27 27 27 27 27 26 26 25 24 24 23 22 22 21 20 19 19 19 18 17 16 15 15 14 13 12 11 11 10 10 9 9 8 7 6 6 5 5 4 4 4 4 4 5 5 5 5 5 5 5 5 6 6 7 7 8 8 7 7 8 8 8 7 6 5 5 5 4 4
21 22 22 21 20 20 21 22 23 24 26 27 27 27 27 27 27 27 28 28 27 27 27 26 25 24 23 22 22 21 20 20 19 19 18 17 17 16 15 15 13 12 12 11 10 10 10 9 9 8 7 6 6 5 4 4 4 4 4 5 4 4 4 4 4 4 4 5 5 5 6 7 7 6 6 7 7 7 7 6 5 5 4 3 3
22 23 22 21 20 21 21 22 23 24 25 27 27 27 28 28 28 28 28 28 28 28 28 26 25 24 23 23 22 22 21 20 20 19 19 18 17 17 16 15 14 13 12 11 11 11 10 10 9 8 8 7 6 6 5 5 5 4 4 4 4 4 3 3 3 3 3 4 4 4 5 5 6 6 5 6 6 6 6 5 5 5 4 3 3
23 23 23 22 21 20 21 22 23 23 25 26 27 28 28 28 28 28 28 29 29 29 28 27 26 25 24 24 23 22 21 21 20 20 19 18 18 17 17 16 15 14 13 12 11 11 11 10 10 9 8 8 7 6 6 5 5 5 5 5 4 4 3 3 2 2 3 3 3 4 4 4 5 5 5 5 5 5 5 4 4 4 3 2 2
23 23 23 22 20 19 20 22 23 24 25 26 27 28 28 29 29 29 29 29 29 29 29 28 27 25 25 24 24 23 22 22 21 21 20 19 18 18 17 17 16 15 14 13 12 12 11 11 11 10 9 9 8 7 6 6 6 5 5 5 5 5 4 3 2 2 2 2 2 3 3 3 3 4 4 4 4 3 4 4 3 3 3 2 1
24 23 23 23 21 20 21 22 23 24 26 27 28 28 28 29 30 30 29 29 29 30 30 29 28 26 25 25 24 24 23 22 22 21 21 20 19 18 18 17 17 16 15 14 13 12 12 11 11 11 10 9 9 8 7 7 6 6 6 6 6 5 5 4 4 3 2 2 2 3 3 2 2 2 2 3 3 3 3 3 3 3 3 2 2
25 24 24 24 23 21 21 22 24 25 26 27 28 28 29 29 30 30 30 30 29 30 30 29 28 27 26 26 25 24 24 23 22 22 21 20 20 19 18 17 17 16 15 15 14 13 12 12 12 11 11 10 10 9 8 8 7 7 7 7 7 6 6 5 5 4 3 3 3 3 2 2 1 1 1 1 2 2 2 2 3 3 3 3 2
25 24 25 25 24 22 21 22 24 25 26 27 28 28 29 30 30 31 31 30 30 29 29 29 29 28 27 26 26 25 24 23 23 22 22 21 20 19 18 17 17 16 15 15 14 14 13 13 13 12 12 11 11 10 10 9 8 8 7 7 7 7 7 6 6 5 5 4 4 3 3 3 2 2 2 1 1 1 1 1 2 2 3 3 2
26 25 25 25 25 23 22 22 23 25 26 27 28 28 29 30 31 31 31 31 30 30 29 29 29 28 28 27 26 25 25 24 23 23 22 22 21 20 19 18 17 16 16 15 15 14 14 14 13 13 13 12 12 11 10 10 10 9 8 8 8 8 8 7 7 6 6 6 5 4 4 4 3 3 3 3 2 1 0 0 0 1 1 2 2
27 26 26 26 25 24 24 24 24 25 26 27 28 29 29 30 30 31 32 31 31 30 30 29 29 29 28 28 27 26 25 25 24 23 23 22 21 20 19 18 17 17 16 16 15 15 15 14 14 14 13 13 12 12 11 11 10 10 10 9 9 9 9 8 8 7 7 7 6 6 5 5 4 4 4 4 4 3 2 1 2 2 2 2 2
28 27 27 27 26 25 24 24 25 25 26 27 28 29 29 29 30 31 31 31 31 31 30 29 29 29 28 28 27 27 26 25 24 24 23 23 22 21 20 19 18 17 17 16 16 15 15 15 14 14 14 13 13 12 12 11 11 11 11 10 10 10 10 10 9 9 8 8 7 7 7 6 6 6 5 5 5 5 4 4 4 4 3 3 3
28 28 27 27 26 26 25 25 26 26 26 27 28 28 29 29 30 30 31 31 31 31 30 30 29 29 28 28 28 27 26 26 25 24 23 23 22 21 20 20 19 18 18 17 16 15 15 15 15 14 14 13 13 13 13 12 12 12 11 11 11 10 11 11 10 10 9 9 9 8 8 8 7 7 7 7 6 6 6 6 6 5 5 5 4
28 29 28 27 26 26 26 26 26 26 27 27 27 27 28 29 29 30 30 31 31 31 30 30 30 29 29 29 28 27 27 26 25 24 24 23 23 22 21 20 19 19 18 18 17 16 15 15 15 14 14 14 14 14 13 13 13 12 12 12 12 11 11 11 11 11 11 10 10 10 10 9 9 9 9 8 8 8 8 8 7 7 7 6 6
28 28 27 27 26 26 26 27 27 27 26 26 26 27 28 28 29 29 30 30 31 31 30 30 30 30 30 29 29 28 27 26 25 25 24 23 22 22 21 21 20 19 19 18 18 17 16 15 15 15 14 14 14 14 13 13 13 12 12 12 12 12 12 12 12 12 12 12 12 12 12 11 11 11 11 11 10 9 9 9 9 9 9 8 8
29 28 27 26 26 26 26 27 27 26 26 26 26 27 27 27 28 28 29 29 30 30 30 30 29 30 30 30 29 29 28 27 26 25 24 23 23 22 22 21 21 20 20 19 18 17 17 16 16 15 15 14 14 14 13 13 13 13 12 12 12 12 12 12 12 13 13 13 13 13 13 13 12 12 13 13 12 11 11 10 10 10 11 10 10
29 28 27 27 27 26 27 27 27 26 27 27 26 27 27 27 27 27 28 29 29 30 30 30 29 29 30 30 30 29 28 28 27 26 25 24 23 23 22 22 21 21 20 20 19 18 17 17 16 16 16 15 15 14 14 14 13 13 13 12 12 12 12 12 12 13 13 13 14 14 14 14 14 14 14 14 14 14 13 13 12 12 12 12 12
29 28 27 26 27 27 27 27 27 27 27 27 27 27 27 27 27 27 27 28 28 29 29 29 29 29 29 30 30 29 29 29 28 27 26 25 24 23 23 22 22 21 21 20 20 19 18 18 17 17 16 16 15 15 14 14 14 14 14 14 13 13 13 13 13 13 13 14 14 15 15 15 15 15 15 15 15 15 15 15 14 14 14 14 14
28 28 28 26 26 27 27 26 27 27 28 28 28 28 27 27 27 27 27 27 27 27 28 28 29 29 29 29 30 29 29 29 28 27 27 26 25 24 23 23 22 22 21 20 20 20 19 19 18 17 17 16 16 15 15 15 15 15 15 15 15 15 14 14 14 14 14 14 14 15 15 15 16 16 16 16 16 16 17 17 17 16 16 16 16
29 29 29 27 26 26 27 27 27 28 28 28 28 28 27 27 27 28 27 27 27 27 27 27 28 28 29 29 29 29 29 29 28 27 27 26 25 24 24 23 23 22 22 21 21 20 20 19 19 18 18 17 17 16 16 16 16 15 15 15 15 15 15 15 15 15 14 14 15 15 15 15 16 16 17 17 17 17 18 18 18 18 18 18 18
29 29 29 27 26 27 27 27 27 28 28 28 28 28 27 27 27 28 28 27 27 27 27 27 27 27 28 28 29 29 28 28 28 27 27 26 25 25 24 24 23 23 22 22 21 21 20 20 19 19 19 18 18 17 17 16 16 16 15 15 15 15 15 15 15 15 15 15 15 15 15 15 15 16 16 16 17 17 18 19 19 19 19 19 20
28 29 29 28 27 27 28 28 28 28 28 28 27 27 27 27 27 27 27 27 27 27 27 27 26 26 27 27 28 27 27 27 27 27 26 26 26 25 25 24 23 23 23 23 22 21 21 21 20 20 19 19 18 18 17 17 16 16 16 15 15 15 15 15 15 15 15 15 15 15 15 15 15 16 16 16 16 17 17 18 19 19 20 20 21
28 29 29 28 27 27 28 28 28 28 28 27 26 27 27 27 27 27 27 28 27 27 27 27 26 26 26 26 26 26 26 26 26 26 26 26 26 25 25 24 24 24 24 23 23 22 22 21 21 21 20 19 19 18 18 17 17 16 16 16 15 15 15 15 15 16 16 16 16 16 16 16 17 17 17 17 17 17 18 18 18 19 20 20 21
28 29 29 27 26 26 27 28 28 28 28 27 26 26 27 27 27 27 28 28 27 27 27 27 27 27 26 26 26 26 25 25 25 26 26 26 26 25 25 25 25 25 24 24 23 23 23 22 22 21 20 20 19 19 19 19 18 17 17 16 16 16 16 16 16 16 16 16 16 17 17 17 18 18 19 19 19 19 19 19 19 20 20 21 21
28 29 28 26 25 25 25 27 28 28 28 27 26 26 26 26 26 27 27 27 27 27 27 27 27 27 26 26 26 26 25 25 25 25 25 26 26 25 25 25 25 25 25 25 24 24 23 23 22 22 21 20 20 20 20 20 19 19 18 17 17 17 17 17 17 17 17 17 17 17 18 18 18 19 19 20 20 21 21 21 21 21 22 22 22
27 28 28 26 26 25 25 26 27 28 28 28 27 26 26 26 26 26 26 27 27 27 26 26 26 26 26 26 26 26 26 26 26 25 25 25 26 26 26 26 26 26 25 25 25 25 24 23 23 22 22 21 21 21 21 20 20 20 20 19 18 18 17 18 18 18 18 18 18 18 18 18 19 19 20 20 21 22 22 23 23 24 24 24 24
26 27 27 27 26 25 25 26 26 26 27 27 28 27 27 26 26 27 27 27 27 26 26 26 26 26 26 26 26 26 26 26 25 25 25 25 25 26 26 26 26 26 26 26 26 25 25 24 24 23 23 22 22 22 21 21 21 21 21 20 19 19 19 19 19 19 19 18 19 19 19 19 19 20 20 21 21 22 23 24 25 25 26 26 27
23 25 25 25 24 24 24 25 25 25 26 27 28 28 27 27 27 27 27 27 26 26 26 26 26 27 26 26 26 26 26 26 25 25 25 25 25 25 26 26 26 26 27 26 26 26 26 25 25 24 24 23 23 22 22 22 22 21 21 21 21 20 20 20 20 20 20 20 20 20 20 20 21 21 21 22 22 23 23 24 25 26 27 27 28
22 22 22 22 22 22 22 22 23 23 24 25 27 27 27 27 27 27 27 27 27 27 27 27 27 27 27 27 26 26 26 26 26 26 25 26 26 26 26 26 26 27 27 27 27 27 26 27 26 26 25 24 24 23 23 23 23 23 22 22 22 22 21 21 21 21 21 21 21 21 22 22 22 23 23 23 24 24 25 25 26 26 27 28 29
22 21 21 20 21 21 21 21 20 21 21 22 25 26 27 27 27 27 27 28 28 27 27 27 27 27 27 27 27 27 27 26 26 26 26 26 26 26 26 26 26 27 27 27 27 27 27 27 27 27 26 26 25 25 24 24 24 24 23 23 23 23 22 22 22 22 22 22 22 23 23 24 24 24 25 25 26 26 26 27 27 28 28 29 30
21 20 20 20 20 20 20 20 19 19 19 20 22 24 26 26 27 27 27 28 28 28 27 27 26 26 27 27 27 27 27 27 27 26 26 26 26 26 26 26 26 27 27 28 28 27 27 28 28 28 27 27 27 26 25 25 25 24 24 23 24 24 23 23 23 23 23 23 23 24 24 25 25 26 26 27 27 28 28 29 29 29 30 31 32
19 19 19 18 19 18 18 18 18 17 17 18 19 21 23 24 25 26 27 28 28 28 28 27 27 26 26 27 27 27 27 26 26 26 26 26 27 27 27 27 27 27 28 28 28 28 28 28 28 28 28 28 28 27 26 26 25 25 25 25 25 24 24 24 24 24 24 24 24 25 25 25 26 26 27 28 28 29 30 30 31 31 31 33 33
18 18 17 17 17 16 16 15 16 16 16 16 17 19 20 21 22 24 26 27 28 28 27 27 27 26 26 27 27 27 27 26 26 26 26 26 26 26 26 27 28 28 28 28 28 28 28 28 28 28 29 29 28 27 27 26 26 26 26 25 25 25 25 25 25 25 25 25 26 26 26 27 27 28 28 29 29 30 31 31 32 32 33 34 34
16 16 16 16 15 15 14 13 14 14 15 15 17 17 18 19 20 21 23 24 26 27 27 27 27 27 27 27 27 27 27 27 26 25 25 25 25 25 25 26 27 28 28 29 29 29 29 28 28 29 29 29 29 28 27 27 27 27 26 26 25 25 25 26 25 26 26 26 26 27 27 28 29 29 30 30 30 31 32 33 33 34 35 35 36
16 15 15 15 14 13 13 12 12 13 14 15 16 17 17 17 18 19 20 21 22 24 25 26 26 26 26 26 26 27 27 27 27 26 25 25 25 25 25 25 26 27 28 29 30 30 29 29 29 28 28 28 29 28 28 28 28 28 27 26 26 26 26 26 26 26 26 27 27 27 28 29 30 31 31 32 32 32 33 34 35 36 37 38 38
16 15 15 15 14 13 13 13 12 12 13 14 16 16 17 17 18 18 19 20 21 22 24 25 26 26 26 26 26 27 27 27 27 26 25 25 25 25 25 25 25 26 27 28 29 29 30 29 29 28 28 28 28 28 28 28 28 28 28 27 27 27 27 27 27 27 27 28 29 29 30 31 31 32 33 33 33 34 34 35 36 37 39 40 40
17 16 16 16 15 15 14 14 13 13 13 14 15 16 17 18 18 19 20 20 21 21 23 24 26 26 26 26 26 26 26 26 27 26 26 26 26 26 25 25 25 25 25 26 27 27 28 28 28 28 28 28 28 28 28 28 28 28 28 28 28 28 27 27 28 28 28 29 30 30 30 31 32 33 33 34 34 35 35 36 37 38 40 41 42
17 17 17 17 16 16 15 14 14 13 14 14 14 16 17 18 18 19 20 20 21 21 21 23 24 25 26 26 26 26 25 26 26 26 26 26 26 26 25 25 25 25 25 25 25 25 26 26 27 27 27 27 27 27 28 28 28 28 28 28 28 28 28 28 28 28 29 29 29 30 30 31 32 33 33 34 35 35 36 37 37 38 40 41 42
17 16 16 16 16 16 15 14 14 14 15 15 16 16 17 17 18 18 18 19 20 20 21 22 23 24 24 24 25 25 24 24 24 24 24 24 25 25 25 25 25 25 25 24 24 24 24 25 25 25 26 26 27 27 27 27 28 28 28 28 28 29 29 29 29 29 29 29 30 30 31 31 32 33 33 34 34 35 36 37 38 39 40 40 42
17 16 16 16 16 15 15 15 15 15 15 16 17 17 18 18 18 18 18 18 18 18 19 21 21 22 22 23 23 23 23 23 23 23 23 23 24 24 25 25 25 25 25 25 24 24 24 24 24 24 25 26 26 27 27 26 27 27 28 28 28 29 29 30 30 31 31 32 32 32 32 32 32 33 33 33 34 35 36 37 38 39 40 41 42
18 17 17 17 17 16 15 15 15 15 16 16 17 18 18 19 19 18 18 18 18 18 19 20 21 21 21 22 22 22 22 22 23 23 23 23 23 23 24 25 25 25 25 25 25 24 24 24 24 24 25 26 26 26 26 25 26 26 27 28 28 29 29 30 31 32 33 33 34 34 34 34 34 34 34 34 35 36 36 37 38 39 40 41 43
18 18 17 17 18 17 17 17 17 17 17 17 17 18 19 19 19 20 20 20 19 19 19 20 21 21 21 22 22 22 22 22 22 23 23 23 23 23 24 24 24 25 25 26 25 25 25 25 25 25 26 26 26 26 26 26 26 26 27 27 28 28 29 29 30 31 31 31 32 32 33 33 33 33 34 34 35 35 36 37 38 39 40 41 42
19 18 18 18 18 18 18 18 18 18 18 17 17 17 18 19 19 20 21 21 21 20 19 20 20 21 22 22 22 22 23 23 23 22 22 22 23 23 23 24 24 24 25 26 26 27 27 27 26 26 27 27 27 27 27 27 27 27 27 27 27 27 27 28 28 28 28 28 29 29 29 29 30 31 32 33 34 35 36 37 37 39 40 41 42
19 19 19 18 18 18 18 18 18 18 18 18 18 18 18 19 19 19 20 21 21 21 20 20 20 20 21 22 22 22 23 23 23 23 22 22 22 22 23 24 24 24 24 25 26 26 27 27 27 27 28 28 28 27 27 27 27 27 27 26 26 26 27 27 27 27 27 27 27 28 28 29 30 31 32 33 34 35 36 37 38 39 40 42 43
18 18 18 18 17 17 17 17 18 18 18 18 18 18 19 19 19 19 20 20 21 21 20 20 20 20 20 21 21 21 22 22 22 22 23 22 22 22 22 23 24 24 24 23 24 25 25 26 26 27 26 26 26 25 26 26 26 26 26 26 26 26 26 26 26 26 26 27 27 28 28 29 30 31 32 33 34 35 36 38 39 40 42 43 44
Wind_Direction
198 198 198 198 198 198 196 194 194 195 195 194 193 194 194 193 193 193 192 191 190 191 191 191 190 189 188 189 189 188 186 185 185 185 183 181 178 174 172 170 170 170 167 163 160 156 150 146 140 133 128 121 113 108 103 100 96 89 83 80 79 79 75 75 81 83 82 81 81 84 92 99 97 100 106 105 106 109 107 102 97 96 93 88 94
199 198 199 198 197 197 198 197 195 195 195 195 194 195 195 195 194 194 193 192 192 192 192 192 192 191 189 189 189 189 188 187 186 186 185 184 183 179 174 171 170 170 170 167 165 161 156 153 148 140 134 128 119 112 108 105 100 91 84 80 79 80 76 75 79 79 79 83 83 80 83 91 96 103 114 113 111 111 107 102 100 99 91 86 90
201 200 200 199 197 196 198 199 197 196 195 195 195 195 195 196 196 195 195 193 193 194 193 193 193 192 191 190 190 189 190 189 188 188 186 185 185 182 178 174 172 171 171 169 169 166 163 160 155 149 141 135 129 121 114 110 104 95 89 85 81 80 76 75 75 74 78 81 80 79 81 86 89 95 110 117 116 114 108 106 106 101 91 88 89
202 201 201 200 199 197 198 199 198 197 196 195 195 195 196 197 197 196 196 195 194 194 194 194 193 192 191 191 191 191 191 190 189 189 188 186 186 185 182 179 175 173 173 172 172 172 170 166 161 157 150 143 137 132 124 117 110 100 94 90 86 82 77 76 71 70 79 81 77 78 78 83 86 89 102 109 113 118 115 112 111 102 92 90 89
202 202 202 201 200 200 200 200 198 197 197 196 196 196 196 196 197 197 197 196 195 194 194 194 193 192 191 190 190 190 190 190 190 189 189 188 187 188 186 183 180 177 177 176 176 176 175 173 169 164 159 152 146 142 135 125 118 108 101 96 92 86 81 80 73 70 78 79 78 80 76 79 85 89 96 98 103 117 124 119 114 105 94 91 91
204 204 204 203 202 202 202 201 199 198 198 197 198 198 197 197 197 197 198 198 197 195 195 194 194 193 192 191 190 190 191 192 192 192 191 190 189 190 188 187 185 182 180 181 180 179 179 179 176 173 169 163 155 149 143 136 131 122 113 105 98 94 87 84 81 75 76 76 78 80 78 79 85 89 91 88 90 103 121 124 117 107 99 93 93
206 206 205 205 204 204 203 202 201 200 198 198 198 198 198 198 197 197 198 199 198 197 196 195 195 195 195 195 194 194 194 195 195 194 194 192 190 190 190 190 189 187 185 185 185 184 184 184 184 182 177 172 165 159 155 149 143 136 125 115 107 104 98 94 91 82 79 79 77 77 75 77 86 91 91 90 88 91 106 119 118 111 105 98 95
206 206 206 206 206 206 205 203 202 200 199 197 197 198 199 198 198 198 198 199 199 198 197 197 197 197 197 197 197 197 197 196 196 195 195 194 192 192 193 193 192 192 190 190 190 189 189 189 190 190 186 181 177 172 168 161 156 151 140 131 124 117 107 101 98 90 87 87 80 75 71 72 82 92 94 94 94 95 101 107 110 112 110 102 98
206 206 206 206 206 206 205 203 201 200 198 197 197 198 199 199 198 198 198 199 200 199 198 198 198 199 199 199 198 198 198 197 196 196 197 196 195 195 196 196 196 196 196 195 194 193 193 193 194 195 194 191 188 186 181 176 173 168 159 153 148 137 120 108 104 99 95 94 89 81 74 71 76 85 90 92 94 98 102 103 104 107 108 110 108
208 206 205 206 206 205 204 202 200 199 198 197 197 198 198 199 198 198 198 199 199 200 200 200 200 200 200 200 199 199 199 198 197 197 198 198 197 198 199 201 201 201 201 200 200 198 197 197 199 201 200 198 197 196 193 190 188 184 179 173 168 161 146 126 115 111 102 98 101 99 90 80 77 82 88 90 90 90 94 100 106 109 108 113 120
209 207 206 206 205 204 202 201 199 198 198 197 197 198 199 199 199 199 199 199 200 201 201 201 201 201 201 201 201 201 200 199 199 199 199 199 199 199 201 203 205 206 205 205 204 203 202 201 204 206 205 204 203 202 201 200 198 196 195 192 186 183 177 159 137 127 119 110 115 122 115 95 85 88 94 96 91 83 85 93 104 108 104 106 120
208 208 207 205 205 204 202 201 200 198 197 196 197 198 199 200 200 199 200 200 201 202 202 202 202 202 202 202 203 203 202 201 201 201 201 201 201 201 202 204 207 209 208 208 208 206 207 206 208 210 211 210 209 208 207 206 205 205 207 208 203 199 198 195 181 158 145 138 140 143 134 111 91 90 97 101 95 87 88 92 98 98 86 74 91
209 209 208 207 206 206 204 202 201 199 198 197 197 198 199 200 200 199 200 200 201 202 202 203 203 203 203 203 204 204 204 203 202 203 203 203 203 202 203 204 207 210 210 211 210 210 211 210 211 214 215 215 214 213 213 211 211 211 213 217 217 213 212 213 211 198 181 169 164 164 158 145 116 90 94 102 96 91 93 91 88 87 78 64 66
209 209 208 208 208 207 205 203 202 201 200 199 198 198 199 200 201 200 200 201 202 202 202 203 204 204 204 204 204 205 205 204 204 204 204 205 205 205 206 206 207 210 212 212 212 213 215 214 213 215 217 218 217 217 217 217 217 217 218 221 222 221 221 222 224 221 214 207 198 196 200 202 186 141 119 111 100 101 103 93 80 70 63 60 60
209 208 209 209 208 207 205 204 203 203 201 200 200 200 200 201 201 201 201 202 202 202 203 203 204 205 205 205 205 205 206 206 205 205 205 206 207 207 208 210 210 211 213 214 213 214 216 216 215 216 218 220 220 220 220 220 221 222 222 223 225 226 226 228 230 229 228 228 224 223 226 231 225 209 205 194 136 120 115 101 85 66 50 44 42
209 209 209 209 209 209 207 206 205 204 203 202 201 201 201 201 202 202 202 203 203 203 203 203 204 206 206 206 206 206 206 206 206 206 206 207 208 209 211 212 212 212 213 215 215 214 217 218 217 218 220 221 223 224 224 224 224 225 226 226 228 229 229 231 233 232 233 234 235 235 235 240 242 230 220 221 223 215 181 115 63 35 21 15 11
209 208 208 209 210 210 209 208 207 205 204 203 203 202 202 202 202 202 202 203 204 204 204 203 204 205 206 207 206 206 206 207 207 206 207 208 211 212 213 214 214 214 214 216 217 217 218 219 220 221 222 223 225 228 229 229 228 229 230 229 230 231 232 234 236 235 236 237 239 241 241 244 247 238 229 229 236 245 252 266 283 291 305 327 337
209 208 208 210 210 210 210 209 208 206 205 204 204 204 203 203 203 202 202 203 204 205 205 205 205 206 207 207 207 207 207 207 207 207 208 209 212 214 214 215 215 216 216 218 220 221 221 222 223 223 224 226 227 229 232 232 233 233 233 234 234 234 234 236 238 239 240 240 241 244 245 246 246 241 235 234 238 246 255 267 276 280 283 289 302
209 208 208 209 210 210 210 209 207 207 206 205 204 204 203 203 203 203 204 204 205 206 206 206 207 207 208 208 208 208 208 208 208 208 209 210 212 213 214 215 216 217 218 220 222 223 223 223 224 225 226 227 228 230 232 233 234 235 235 236 237 236 236 237 238 240 242 243 243 245 247 247 246 243 240 240 243 248 254 262 270 273 274 275 279
207 207 208 208 209 210 210 208 207 207 206 205 204 203 202 203 203 203 204 205 205 206 206 207 208 208 209 209 209 209 209 209 209 210 210 211 212 213 215 217 217 218 219 221 223 223 223 223 224 226 227 228 229 230 231 232 233 235 236 237 237 237 238 238 239 240 242 243 244 246 248 248 246 245 244 244 247 251 254 258 263 267 268 271 271
205 206 208 208 208 209 209 208 207 207 206 204 203 203 202 202 203 203 204 204 205 206 206 207 208 209 209 209 209 209 210 210 211 212 212 212 213 214 216 218 219 219 219 221 223 224 224 224 224 226 226 227 228 229 230 230 231 234 235 236 237 237 239 240 241 241 241 243 244 246 248 250 248 246 246 247 249 252 255 257 260 262 264 266 268
205 206 208 207 207 208 208 207 205 205 204 202 202 201 200 201 202 203 203 204 205 206 206 207 207 209 209 210 210 210 211 212 213 213 213 213 214 215 217 219 220 220 220 221 223 224 224 224 225 226 227 228 228 228 229 229 230 232 233 235 237 237 239 241 242 242 243 243 244 246 248 250 251 250 248 248 249 251 255 258 260 260 261 264 266
205 205 206 207 207 207 206 205 203 203 203 202 202 201 200 200 201 201 202 204 205 206 206 207 207 208 210 210 211 211 212 213 214 214 214 214 215 216 218 219 220 221 221 222 223 224 225 225 226 227 228 230 230 230 230 230 230 231 233 235 237 237 239 241 242 243 244 245 245 247 249 250 252 252 250 250 251 252 254 258 261 261 262 264 267
203 203 204 205 205 204 204 203 202 202 202 202 202 202 202 201 201 201 202 203 204 205 206 206 207 209 210 210 211 211 212 213 214 215 215 216 217 217 218 220 220 221 222 223 224 225 226 227 228 229 229 230 231 231 231 231 232 234 235 236 237 238 240 242 244 245 246 247 248 248 250 251 252 253 253 252 252 253 255 258 261 263 264 266 267
199 200 200 200 200 201 201 201 202 202 202 202 203 203 203 202 201 201 202 202 202 203 204 206 207 209 210 211 212 213 213 214 215 216 216 217 217 218 219 220 220 221 222 223 224 225 226 227 229 230 230 230 230 230 231 232 234 236 237 238 239 240 242 244 247 248 248 249 249 250 252 252 253 254 254 255 255 255 257 259 261 263 265 266 268
197 197 197 198 199 200 199 200 201 201 202 203 203 203 203 202 201 202 202 201 202 203 204 205 207 208 210 212 213 214 215 215 216 216 217 217 217 218 219 220 220 221 223 224 224 225 226 227 228 230 230 230 230 230 232 234 235 237 238 240 242 243 244 246 247 249 250 250 250 251 253 253 254 255 256 258 257 257 258 259 261 263 265 267 268
195 195 196 198 200 200 200 200 200 200 200 202 202 202 202 202 202 202 203 203 202 203 204 205 207 208 210 212 213 213 215 215 216 217 217 217 217 218 219 220 221 222 223 224 225 226 227 227 229 229 229 230 231 231 233 235 236 237 239 240 242 244 246 247 248 249 250 252 253 253 254 254 255 256 258 260 260 260 261 261 262 264 266 267 268
194 194 195 198 200 201 200 199 199 199 199 200 201 202 202 202 203 203 203 204 204 204 205 206 207 208 209 211 212 213 214 215 216 217 217 218 218 219 220 221 222 223 224 225 226 227 228 228 230 230 231 231 232 232 233 234 235 236 238 240 242 244 246 248 250 252 252 253 254 255 257 257 257 258 259 260 261 263 263 264 265 266 267 268 269
193 195 196 198 200 199 199 199 199 199 198 199 200 201 203 203 204 204 204 204 205 205 206 207 207 208 209 211 212 213 214 215 215 216 217 218 219 220 220 222 223 225 226 227 228 228 229 229 231 231 232 232 232 232 232 233 234 236 238 241 243 245 247 250 252 253 254 254 255 257 258 259 259 259 260 261 262 263 265 267 268 268 268 269 270
193 194 196 197 197 197 197 198 198 199 198 199 200 201 202 203 204 204 205 205 205 205 207 207 207 209 210 211 212 213 214 215 216 217 218 219 220 221 221 223 224 226 227 228 229 229 230 230 231 231 231 231 231 232 232 233 235 238 241 243 246 248 250 251 253 253 254 255 256 258 259 260 260 261 261 262 263 264 266 268 270 270 271 271 272
193 194 195 196 195 194 195 196 198 199 199 199 200 201 201 202 203 204 205 205 205 205 206 207 209 210 211 212 213 214 215 215 216 218 219 220 221 222 223 224 225 227 227 228 229 230 230 230 230 230 230 230 232 233 233 235 237 240 242 245 248 250 251 252 253 253 255 256 257 259 260 261 262 263 263 264 265 266 267 268 269 270 271 272 272
193 195 196 195 194 193 194 195 197 199 200 201 201 201 201 203 203 204 204 204 204 205 207 208 210 211 212 212 213 214 216 216 218 219 220 221 222 224 225 226 226 227 227 228 229 230 230 230 229 229 230 231 233 235 236 237 239 241 242 245 247 249 251 252 252 253 255 257 259 260 262 263 264 265 266 267 268 268 268 269 270 270 271 272 272
191 194 195 194 194 194 195 196 197 198 200 202 202 202 203 204 204 204 204 204 204 206 208 209 211 212 213 214 215 216 217 218 219 220 221 223 224 225 226 227 228 228 228 229 230 231 231 230 229 229 230 233 235 237 238 240 241 242 242 244 247 249 251 252 253 255 256 258 260 262 263 265 267 267 269 270 271 271 271 271 271 272 273 273 273
188 191 193 194 195 195 196 197 199 200 202 203 203 204 205 205 206 206 205 205 206 207 209 210 212 213 214 215 216 217 218 219 220 221 223 224 225 226 228 228 229 228 228 229 230 231 231 230 230 231 232 234 237 239 240 241 242 243 244 245 248 250 252 254 255 257 259 260 262 263 265 267 269 270 271 272 272 273 274 274 273 274 274 274 274
184 187 190 193 194 194 195 196 198 200 202 203 204 205 206 207 207 207 207 208 209 209 210 211 212 214 215 216 217 218 218 220 221 222 223 225 226 227 228 228 229 229 229 230 231 232 232 231 231 232 233 236 238 240 241 242 243 245 245 246 248 250 252 255 257 259 260 262 264 265 267 268 270 271 272 272 273 274 275 275 276 275 275 276 276
179 181 184 186 188 190 192 194 196 198 201 203 205 206 207 208 209 209 209 210 211 212 212 212 213 215 216 217 217 219 220 221 222 223 225 226 227 228 229 229 229 230 230 231 231 232 233 232 232 233 234 237 239 241 241 243 245 245 246 248 249 250 252 255 257 259 261 263 264 266 267 269 271 272 273 272 273 274 275 275 276 276 277 277 278
175 176 177 178 180 183 186 189 192 196 200 203 206 207 209 211 212 212 212 212 213 214 214 214 215 216 217 217 218 219 221 222 224 225 227 228 229 230 230 230 230 230 231 231 232 233 234 234 234 235 236 238 240 242 242 243 245 245 247 249 251 252 253 255 258 260 261 263 265 265 267 269 271 272 273 273 273 274 275 276 276 277 278 278 279
172 174 174 175 177 180 183 186 189 195 200 204 206 208 210 212 214 215 215 215 215 215 216 216 216 217 218 219 220 220 221 222 224 227 229 230 231 232 231 231 231 231 231 232 233 234 235 236 236 237 238 239 242 243 242 242 244 245 247 250 251 252 255 257 259 261 262 264 265 266 267 269 271 273 273 273 273 274 276 277 278 279 279 279 279
169 172 173 176 179 182 185 187 190 196 201 204 206 207 208 211 214 216 217 218 218 219 219 219 220 221 221 222 222 222 222 223 225 228 229 230 232 233 233 233 233 232 233 233 234 235 236 237 238 238 239 240 242 243 241 241 243 245 247 250 252 253 255 257 260 262 263 264 266 267 268 269 271 273 274 274 275 276 277 278 279 279 280 280 281
170 173 176 179 182 185 188 191 196 200 205 207 207 208 209 212 215 217 218 220 222 223 224 224 224 224 224 225 225 224 225 226 227 229 231 231 232 233 234 235 235 235 235 234 235 235 236 237 238 238 239 240 241 242 241 241 243 245 247 250 252 253 255 258 260 262 263 265 267 268 270 271 272 274 275 276 276 277 278 279 280 280 280 281 282
175 177 180 183 186 190 192 195 201 206 211 213 213 213 214 215 216 218 221 224 226 227 227 227 227 227 227 227 227 227 228 228 230 231 232 232 232 233 234 235 236 236 236 236 235 235 235 236 237 238 239 240 240 242 242 242 243 245 247 250 252 255 257 260 262 263 265 267 269 271 273 273 274 275 276 277 277 277 279 280 281 281 282 283 283
182 183 186 190 194 197 200 202 206 210 215 218 218 219 220 220 219 222 225 227 229 230 230 229 228 229 229 229 229 230 230 231 232 233 233 233 233 234 234 235 236 236 236 235 235 235 235 236 237 237 239 240 241 242 242 243 244 245 247 250 253 256 259 261 263 264 267 269 271 273 275 276 276 277 277 278 279 279 280 281 282 283 284 284 284
189 190 192 196 201 205 208 210 212 214 216 219 222 223 224 224 225 227 228 228 229 231 231 230 229 229 230 231 231 231 232 232 233 234 234 234 233 233 233 234 234 234 233 233 233 234 235 236 237 237 239 240 241 242 242 243 244 246 248 251 254 257 260 262 264 266 269 271 273 275 277 277 278 278 279 279 280 281 282 283 284 285 286 286 286
198 199 200 202 205 208 211 214 217 219 220 222 225 227 229 229 230 231 231 230 231 231 230 229 229 229 229 230 231 232 232 233 233 233 234 234 233 231 231 231 231 231 232 232 233 234 235 236 237 238 239 240 242 243 243 244 245 247 250 252 255 258 261 262 265 268 271 273 275 277 278 279 280 280 281 281 281 282 284 285 285 286 288 289 289
205 206 206 207 208 211 214 219 224 227 227 228 228 229 231 233 233 232 231 231 232 231 229 227 227 227 228 229 230 230 231 232 232 232 232 232 232 230 230 229 230 231 232 233 234 234 235 236 237 239 240 241 242 244 245 246 247 249 251 254 257 259 261 263 266 269 272 275 277 279 281 281 281 281 281 282 283 284 284 286 287 288 289 290 291
210 211 212 212 212 215 220 224 229 232 232 232 232 230 231 233 233 232 231 230 230 231 229 226 225 226 226 226 227 228 229 230 230 231 231 231 231 231 230 230 230 231 233 234 235 236 236 238 239 240 241 242 244 246 247 249 250 251 253 255 258 260 263 265 268 270 272 275 277 279 281 281 282 282 283 284 285 285 286 287 288 289 290 291 292
218 220 222 222 221 223 227 230 233 234 234 234 234 233 232 232 232 232 233 232 231 232 231 228 226 225 224 224 226 227 228 229 230 230 231 231 231 232 232 232 232 233 234 235 237 238 239 239 241 242 242 244 246 247 248 250 251 253 255 257 259 262 265 267 269 271 273 275 277 279 280 281 282 282 283 284 286 287 288 289 290 291 292 292 292
226 227 230 232 232 233 234 235 236 236 235 235 236 236 235 234 234 234 235 235 235 235 234 231 228 226 225 224 225 226 227 229 230 231 232 233 233 234 235 235 236 236 237 238 239 240 241 242 243 243 244 246 247 248 249 251 253 255 257 259 262 265 267 269 271 273 275 277 278 279 280 281 282 283 284 286 287 289 290 291 292 292 293 293 294
234 234 236 238 239 239 238 237 237 236 235 236 237 237 237 236 236 237 237 237 237 236 235 234 231 229 227 226 226 227 228 229 230 231 233 235 237 238 238 239 240 242 242 242 242 243 244 244 245 245 246 247 248 249 251 252 254 257 259 262 265 267 269 271 273 274 276 278 279 280 282 283 285 287 288 290 290 291 291 292 293 294 294 295 295
233 236 237 239 241 241 239 238 237 236 235 236 237 238 238 238 238 237 238 238 237 236 236 235 233 231 229 228 228 228 229 229 230 231 233 236 238 241 243 243 244 246 247 246 245 245 246 246 246 247 248 248 249 250 251 253 256 258 261 263 266 267 269 271 273 275 276 278 280 282 284 286 289 290 291 292 292 293 293 294 295 295 296 296 297
229 232 234 237 239 239 237 237 236 236 236 237 238 239 239 239 239 238 237 238 237 236 236 236 234 232 230 228 228 228 229 230 230 232 233 235 238 241 245 246 246 247 247 247 247 247 247 246 246 246 247 248 249 250 252 254 257 259 261 263 265 267 269 270 273 275 277 279 282 284 286 289 290 291 292 293 293 294 295 296 296 297 297 298 298